Location: Tel Aviv
(32.0670°N, 34.7670°E)
Time: 02:27:28
(UTC+03:00)

Vanguard 2 - Pass Details

Date: 27 January 2022
Orbit: 552 x 2935 km, 32.9° (Epoch: 26 May)

Event Time Altitude Azimuth Distance (km) Brightness Sun altitude
Rises 19:37:03 0° 253° (WSW) 3,723 12.1 -31.2°
Reaches altitude 10° 19:39:13 10° 252° (WSW) 2,997 11.4 -31.6°
Maximum altitude 19:46:51 83° 166° (SSE) 1,601 8.9 -33.2°
Enters shadow 19:48:13 71° 96° (E) 1,755 8.9 -33.5°
Drops below altitude 10° 20:00:05 10° 80° (E) 4,957 - -36.0°
Sets 20:04:44 0° 80° (E) 6,270 - -37.0°
